Weather History for KTYQ - January, 2013

Change the Weather History Date:

Wednesday, January 9, 2013

  Actual Average (KEYE) Record (KEYE)
Temperature  
Mean Temperature 37 °F 28 °F  
Max Temperature 44 °F 35 °F 50 °F (2006)
Min Temperature 30 °F 21 °F -4 °F (1999)
Degree Days  
Heating Degree Days 28 37  
Month to date heating degree days 333  
Since 1 July heating degree days 2389  
Cooling Degree Days 0 0  
Month to date cooling degree days 0  
Year to date cooling degree days 0  
Moisture  
Dew Point 31 °F    
Average Humidity 73    
Maximum Humidity 86    
Minimum Humidity 61    
Precipitation  
Precipitation 0.03 in 0.09 in 0.30 in (1997)
Month to date precipitation 0.93  
Year to date precipitation 0.93  
Sea Level Pressure  
Sea Level Pressure 30.32 in    
Wind  
Wind Speed 10 mph (WSW)    
Max Wind Speed 16 mph    
Max Gust Speed 21 mph    
Visibility 10 miles    
Events Rain    
T = Trace of Precipitation, MM = Missing Value Source: NWS Daily Summary

Daily Weather History Graph

Daily Weather History Graph

Search for Another Location

Airport or City:

Trip Planner

Search our weather history database for the weather conditions in past years. The results will help you decide how hot, cold, wet, or windy it might be!

Date:

Astronomy

Jan. 09, 2013 Rise Set
Actual Time 8:06 AM EST 5:38 PM EST
Civil Twilight 7:36 AM EST 6:08 PM EST
Nautical Twilight 7:02 AM EST 6:41 PM EST
Astronomical Twilight 6:30 AM EST 7:14 PM EST
Moon 5:45 AM EST (1/9) 3:39 PM EST (1/9)
Length of Visible Light 10h 31m
Length of Day
9h 31m
Waning Crescent, 6% of the Moon is Illuminated
Jan 9
Waning Crescent
Jan 11
New
Jan 18
First Quarter
Jan 26
Full
Feb 3
Last Quarter

Hourly Weather History & Observations

Time (EST) Temp. Windchill Dew Point Humidity Pressure Visibility Wind Dir Wind Speed Gust Speed Precip Events Conditions
12:15 AM 36.5 °F 30.3 °F 27.5 °F 70% 30.18 in 10.0 mi South 8.1 mph - N/A   Mostly Cloudy
12:35 AM 37.8 °F 31.8 °F 28.4 °F 69% 30.18 in 10.0 mi South 8.1 mph - N/A   Overcast
12:55 AM 37.8 °F 31.3 °F 28.8 °F 70% 30.16 in 10.0 mi South 9.2 mph - N/A   Overcast
1:15 AM 37.8 °F 31.8 °F 29.1 °F 71% 30.16 in 10.0 mi South 8.1 mph - N/A   Overcast
1:35 AM 38.3 °F 31.4 °F 29.3 °F 70% 30.16 in 10.0 mi South 10.4 mph - N/A   Overcast
1:55 AM 38.5 °F 31.6 °F 29.5 °F 70% 30.16 in 10.0 mi South 10.4 mph - N/A   Overcast
2:15 AM 39.0 °F 32.3 °F 29.8 °F 70% 30.16 in 10.0 mi South 10.4 mph - N/A   Overcast
2:35 AM 39.2 °F 32.0 °F 29.7 °F 69% 30.16 in 10.0 mi South 11.5 mph - N/A   Overcast
2:55 AM 39.2 °F 32.0 °F 30.0 °F 70% 30.16 in 10.0 mi SSW 11.5 mph - N/A   Overcast
3:15 AM 40.5 °F 32.8 °F 30.4 °F 67% 30.17 in 10.0 mi SSW 13.8 mph - N/A   Overcast
3:35 AM 41.5 °F 33.8 °F 30.4 °F 65% 30.16 in 10.0 mi SSW 15.0 mph - N/A   Overcast
3:55 AM 41.5 °F 34.2 °F 30.2 °F 64% 30.17 in 10.0 mi SSW 13.8 mph - N/A   Overcast
4:15 AM 41.5 °F 34.2 °F 30.6 °F 65% 30.17 in 10.0 mi SW 13.8 mph - N/A   Overcast
4:35 AM 41.5 °F 34.6 °F 30.7 °F 65% 30.18 in 10.0 mi SW 12.7 mph - N/A   Overcast
4:55 AM 42.1 °F 34.5 °F 30.9 °F 65% 30.18 in 10.0 mi SW 15.0 mph 19.6 mph N/A   Overcast
5:15 AM 41.4 °F 34.0 °F 31.1 °F 67% 30.18 in 10.0 mi SW 13.8 mph - N/A   Drizzle
5:35 AM 41.0 °F 33.9 °F 32.0 °F 70% 30.19 in 10.0 mi SW 12.7 mph - N/A Rain Light Rain
5:55 AM 40.5 °F 32.8 °F 32.7 °F 74% 30.20 in 10.0 mi SW 13.8 mph 20.7 mph 0.01 in Rain Light Rain
6:15 AM 39.4 °F 31.4 °F 33.3 °F 79% 30.21 in 10.0 mi SW 13.8 mph 19.6 mph 0.01 in Rain Light Rain
6:35 AM 39.6 °F 31.0 °F 34.0 °F 80% 30.20 in 10.0 mi SW 16.1 mph - 0.02 in Rain Rain
6:55 AM 39.2 °F 31.6 °F 34.2 °F 82% 30.21 in 10.0 mi SW 12.7 mph - 0.02 in   Overcast
7:15 AM 39.6 °F 31.3 °F 34.7 °F 83% 30.23 in 10.0 mi WSW 15.0 mph - N/A   Scattered Clouds
7:35 AM 39.2 °F 32.0 °F 34.5 °F 83% 30.23 in 10.0 mi SW 11.5 mph - N/A   Clear
7:55 AM 39.2 °F 31.2 °F 34.5 °F 83% 30.25 in 10.0 mi SW 13.8 mph - N/A   Clear
8:15 AM 38.7 °F 30.5 °F 34.5 °F 85% 30.26 in 10.0 mi SW 13.8 mph - N/A   Clear
8:35 AM 39.0 °F 31.8 °F 34.9 °F 85% 30.27 in 7.0 mi WSW 11.5 mph - N/A   Clear
8:55 AM 39.0 °F 31.8 °F 35.1 °F 86% 30.28 in 7.0 mi WSW 11.5 mph - N/A   Clear
9:35 AM 39.6 °F 32.5 °F 35.4 °F 85% 30.30 in 7.0 mi WSW 11.5 mph - N/A   Clear
9:55 AM 40.1 °F 32.7 °F 35.6 °F 84% 30.31 in 10.0 mi WSW 12.7 mph - N/A   Clear
10:15 AM 40.1 °F 32.4 °F 35.2 °F 83% 30.31 in 10.0 mi WSW 13.8 mph 18.4 mph N/A   Clear
10:35 AM 41.0 °F 33.5 °F 35.4 °F 81% 30.32 in 10.0 mi WSW 13.8 mph - N/A   Clear
10:55 AM 41.2 °F 34.1 °F 35.1 °F 79% 30.33 in 10.0 mi WSW 12.7 mph 17.3 mph N/A   Clear
11:15 AM 41.2 °F 35.0 °F 34.9 °F 78% 30.34 in 10.0 mi West 10.4 mph - N/A   Clear
11:35 AM 41.0 °F 34.7 °F 34.7 °F 78% 30.34 in 10.0 mi WSW 10.4 mph 18.4 mph N/A   Clear
11:55 AM 41.4 °F 35.2 °F 34.3 °F 76% 30.34 in 10.0 mi WSW 10.4 mph - N/A   Clear
12:15 PM 41.9 °F 36.3 °F 34.0 °F 73% 30.34 in 10.0 mi West 9.2 mph - N/A   Clear
1:15 PM 42.8 °F 37.0 °F 33.1 °F 69% 30.32 in 10.0 mi WSW 10.4 mph - N/A   Clear
1:35 PM 43.0 °F 37.2 °F 32.9 °F 68% 30.33 in 10.0 mi WSW 10.4 mph - N/A   Clear
1:55 PM 43.0 °F 36.8 °F 32.7 °F 67% 30.33 in 10.0 mi WSW 11.5 mph - N/A   Clear
2:15 PM 43.7 °F 37.3 °F 32.4 °F 64% 30.33 in 10.0 mi WSW 12.7 mph - N/A   Clear
2:35 PM 44.6 °F 38.4 °F 32.2 °F 62% 30.34 in 10.0 mi WSW 12.7 mph 16.1 mph N/A   Clear
2:55 PM 44.6 °F 38.8 °F 32.0 °F 61% 30.35 in 10.0 mi West 11.5 mph - N/A   Clear
3:15 PM 44.6 °F 39.2 °F 32.0 °F 61% 30.36 in 10.0 mi WSW 10.4 mph - N/A   Clear
3:35 PM 44.6 °F 40.2 °F 32.0 °F 61% 30.36 in 10.0 mi West 8.1 mph - N/A   Clear
3:55 PM 44.2 °F 40.3 °F 32.0 °F 62% 30.37 in 10.0 mi WSW 6.9 mph - N/A   Clear
4:15 PM 43.9 °F 39.9 °F 32.0 °F 63% 30.38 in 10.0 mi WSW 6.9 mph - N/A   Clear
4:35 PM 43.7 °F 39.7 °F 32.0 °F 63% 30.40 in 10.0 mi WSW 6.9 mph - N/A   Clear
4:55 PM 42.4 °F 37.5 °F 32.0 °F 67% 30.41 in 10.0 mi WSW 8.1 mph - N/A   Clear
5:15 PM 41.2 °F 37.3 °F 32.0 °F 70% 30.41 in 10.0 mi WSW 5.8 mph - N/A   Clear
5:35 PM 40.3 °F 36.3 °F 31.8 °F 72% 30.42 in 10.0 mi West 5.8 mph - N/A   Clear
5:55 PM 39.4 °F 35.2 °F 31.5 °F 73% 30.42 in 10.0 mi WSW 5.8 mph - N/A   Clear
6:15 PM 38.8 °F 34.6 °F 31.5 °F 75% 30.42 in 10.0 mi West 5.8 mph - N/A   Clear
6:35 PM 38.1 °F 34.6 °F 31.3 °F 76% 30.43 in 10.0 mi West 4.6 mph - N/A   Clear
6:55 PM 38.3 °F 34.8 °F 31.6 °F 77% 30.43 in 10.0 mi West 4.6 mph - N/A   Clear
7:15 PM 38.5 °F 36.1 °F 31.5 °F 76% 30.44 in 10.0 mi West 3.5 mph - N/A   Clear
7:35 PM 38.3 °F 33.9 °F 30.7 °F 74% 30.44 in 10.0 mi WNW 5.8 mph - N/A   Clear
8:15 PM 37.4 °F 33.8 °F 30.0 °F 75% 30.46 in 10.0 mi West 4.6 mph - N/A   Clear
8:35 PM 37.0 °F 33.3 °F 29.5 °F 74% 30.46 in 10.0 mi NW 4.6 mph - N/A   Clear
8:55 PM 37.2 °F 34.7 °F 29.5 °F 74% 30.46 in 10.0 mi WNW 3.5 mph - N/A   Clear
9:35 PM 36.7 °F 34.1 °F 28.0 °F 71% 30.47 in 10.0 mi WNW 3.5 mph - N/A   Clear
9:55 PM 33.4 °F 29.1 °F 27.0 °F 77% 30.48 in 10.0 mi WSW 4.6 mph - N/A   Clear
10:15 PM 33.4 °F 29.1 °F 27.5 °F 79% 30.48 in 10.0 mi West 4.6 mph - N/A   Clear
10:35 PM 32.2 °F - 27.0 °F 81% 30.48 in 10.0 mi Calm Calm - N/A   Clear
10:55 PM 31.1 °F 25.4 °F 26.4 °F 83% 30.49 in 10.0 mi South 5.8 mph - N/A   Clear
11:15 PM 30.2 °F 26.7 °F 25.9 °F 84% 30.50 in 10.0 mi SW 3.5 mph - N/A   Clear
11:35 PM 31.1 °F - 26.4 °F 83% 30.50 in 10.0 mi Calm Calm - N/A   Clear
11:55 PM 30.0 °F - 26.1 °F 85% 30.50 in 10.0 mi Calm Calm - N/A   Clear